Time,TemperatureF,DewpointF,PressureIn,WindDirection,WindDirectionDegrees,WindSpeedMPH,WindSpeedGustMPH,Humidity,HourlyPrecipIn,Conditions,Clouds,dailyrainin,SoftwareType,DateUTC
2013-08-09 00:01:00,81.7,75.7,30.02,East,93,1.0,1.0,82,0.00,,,0.00,Wunderground v.1.15,2013-08-09 04:01:00,
2013-08-09 00:04:00,81.7,75.7,30.02,East,79,0.0,1.0,82,0.00,,,0.00,Wunderground v.1.15,2013-08-09 04:04:00,
2013-08-09 00:05:00,81.7,75.7,30.02,East,91,2.0,2.0,82,0.00,,,0.00,Wunderground v.1.15,2013-08-09 04:05:00,
2013-08-09 00:06:00,81.7,75.7,30.02,East,87,2.0,2.0,82,0.00,,,0.00,Wunderground v.1.15,2013-08-09 04:06:00,
2013-08-09 00:09:00,81.8,75.8,30.02,East,100,4.0,4.0,82,0.00,,,0.00,Wunderground v.1.15,2013-08-09 04:09:00,
2013-08-09 00:15:00,81.8,75.4,30.02,East,83,0.0,2.0,81,0.00,,,0.00,Wunderground v.1.15,2013-08-09 04:15:00,
2013-08-09 00:21:00,82.0,75.6,30.02,ESE,103,0.0,1.0,81,0.00,,,0.00,Wunderground v.1.15,2013-08-09 04:21:00,
2013-08-09 00:27:00,82.1,75.7,30.02,East,96,0.0,2.0,81,0.00,,,0.00,Wunderground v.1.15,2013-08-09 04:27:00,
2013-08-09 00:32:00,82.3,75.9,30.03,East,95,3.0,3.0,81,0.00,,,0.00,Wunderground v.1.15,2013-08-09 04:32:00,
2013-08-09 00:38:00,82.3,76.3,30.03,East,91,0.0,3.0,82,0.00,,,0.00,Wunderground v.1.15,2013-08-09 04:38:00,
2013-08-09 00:44:00,82.2,76.5,30.03,East,84,0.0,4.0,83,0.00,,,0.00,Wunderground v.1.15,2013-08-09 04:44:00,
2013-08-09 00:49:00,82.2,76.5,30.03,East,79,0.0,4.0,83,0.00,,,0.00,Wunderground v.1.15,2013-08-09 04:49:00,
2013-08-09 00:55:00,82.0,76.7,30.02,ESE,117,2.0,2.0,84,0.00,,,0.00,Wunderground v.1.15,2013-08-09 04:55:00,
2013-08-09 01:00:00,81.9,76.6,30.02,East,91,0.0,0.0,84,0.00,,,0.00,Wunderground v.1.15,2013-08-09 05:00:00,
2013-08-09 01:06:00,81.9,76.6,30.02,East,101,3.0,3.0,84,0.00,,,0.00,Wunderground v.1.15,2013-08-09 05:06:00,
2013-08-09 01:12:00,82.0,76.7,30.02,East,84,7.0,7.0,84,0.00,,,0.00,Wunderground v.1.15,2013-08-09 05:12:00,
2013-08-09 01:18:00,82.2,76.5,30.02,ESE,121,0.0,7.0,83,0.00,,,0.00,Wunderground v.1.15,2013-08-09 05:18:00,
2013-08-09 01:24:00,82.2,76.5,30.02,East,100,0.0,2.0,83,0.00,,,0.00,Wunderground v.1.15,2013-08-09 05:24:00,
2013-08-09 01:30:00,82.1,76.4,30.01,ENE,59,1.0,1.0,83,0.00,,,0.00,Wunderground v.1.15,2013-08-09 05:30:00,
2013-08-09 01:36:00,82.0,76.3,30.01,East,98,4.0,4.0,83,0.00,,,0.00,Wunderground v.1.15,2013-08-09 05:36:00,
2013-08-09 01:42:00,82.0,76.3,30.01,East,92,1.0,2.0,83,0.00,,,0.00,Wunderground v.1.15,2013-08-09 05:42:00,
2013-08-09 01:47:00,81.9,76.2,30.01,East,101,3.0,3.0,83,0.00,,,0.00,Wunderground v.1.15,2013-08-09 05:47:00,
2013-08-09 01:52:00,81.9,75.9,30.01,SE,146,1.0,1.0,82,0.00,,,0.00,Wunderground v.1.15,2013-08-09 05:52:00,
2013-08-09 01:58:00,81.9,75.9,30.01,South,170,1.0,4.0,82,0.00,,,0.00,Wunderground v.1.15,2013-08-09 05:58:00,
2013-08-09 02:03:00,81.8,75.8,30.01,East,86,0.0,3.0,82,0.00,,,0.00,Wunderground v.1.15,2013-08-09 06:03:00,
2013-08-09 02:08:00,81.8,75.8,30.01,East,97,2.0,6.0,82,0.00,,,0.00,Wunderground v.1.15,2013-08-09 06:08:00,
2013-08-09 02:14:00,81.8,75.8,30.00,East,101,3.0,7.0,82,0.00,,,0.00,Wunderground v.1.15,2013-08-09 06:14:00,
2013-08-09 02:19:00,81.7,75.7,30.00,ENE,75,0.0,7.0,82,0.00,,,0.00,Wunderground v.1.15,2013-08-09 06:19:00,
2013-08-09 02:24:00,81.6,75.9,29.99,East,88,1.0,7.0,83,0.00,,,0.00,Wunderground v.1.15,2013-08-09 06:24:00,
2013-08-09 02:29:00,81.6,75.6,30.00,ESE,114,5.0,7.0,82,0.00,,,0.00,Wunderground v.1.15,2013-08-09 06:29:00,
2013-08-09 02:34:00,81.7,75.7,29.99,ENE,67,0.0,5.0,82,0.00,,,0.00,Wunderground v.1.15,2013-08-09 06:34:00,
2013-08-09 02:39:00,81.6,75.6,29.99,East,85,1.0,5.0,82,0.00,,,0.00,Wunderground v.1.15,2013-08-09 06:39:00,
2013-08-09 02:44:00,81.6,75.6,29.99,East,96,0.0,5.0,82,0.00,,,0.00,Wunderground v.1.15,2013-08-09 06:44:00,
2013-08-09 02:49:00,81.5,75.5,29.99,ESE,117,0.0,5.0,82,0.00,,,0.00,Wunderground v.1.15,2013-08-09 06:49:00,
2013-08-09 02:54:00,81.4,75.4,29.99,East,100,0.0,4.0,82,0.00,,,0.00,Wunderground v.1.15,2013-08-09 06:54:00,
2013-08-09 02:59:00,81.3,75.3,29.99,East,89,0.0,4.0,82,0.00,,,0.00,Wunderground v.1.15,2013-08-09 06:59:00,
2013-08-09 03:04:00,81.2,75.5,29.99,East,98,2.0,4.0,83,0.00,,,0.00,Wunderground v.1.15,2013-08-09 07:04:00,
2013-08-09 03:09:00,81.2,75.2,29.99,ESE,115,0.0,4.0,82,0.00,,,0.00,Wunderground v.1.15,2013-08-09 07:09:00,
2013-08-09 03:14:00,81.1,75.4,29.98,East,94,0.0,1.0,83,0.00,,,0.00,Wunderground v.1.15,2013-08-09 07:14:00,
2013-08-09 03:19:00,80.9,75.2,29.98,East,94,0.0,1.0,83,0.00,,,0.00,Wunderground v.1.15,2013-08-09 07:19:00,
2013-08-09 03:24:00,80.8,75.2,29.99,ESE,111,0.0,3.0,83,0.00,,,0.00,Wunderground v.1.15,2013-08-09 07:24:00,
2013-08-09 03:29:00,80.8,75.2,29.99,East,100,0.0,3.0,83,0.00,,,0.00,Wunderground v.1.15,2013-08-09 07:29:00,
2013-08-09 03:34:00,80.8,75.2,29.99,East,82,0.0,1.0,83,0.00,,,0.00,Wunderground v.1.15,2013-08-09 07:34:00,
2013-08-09 03:39:00,80.8,75.2,29.99,East,93,0.0,2.0,83,0.00,,,0.00,Wunderground v.1.15,2013-08-09 07:39:00,
2013-08-09 03:44:00,80.9,75.2,29.98,East,89,0.0,1.0,83,0.00,,,0.00,Wunderground v.1.15,2013-08-09 07:44:00,
2013-08-09 03:49:00,80.9,75.2,29.98,East,89,0.0,1.0,83,0.00,,,0.00,Wunderground v.1.15,2013-08-09 07:49:00,
2013-08-09 03:54:00,80.9,75.2,29.98,East,89,0.0,1.0,83,0.00,,,0.00,Wunderground v.1.15,2013-08-09 07:54:00,
2013-08-09 03:59:00,81.0,76.1,30.00,East,79,8.0,12.0,85,3.69,,,0.07,Wunderground v.1.15,2013-08-09 07:59:00,
2013-08-09 04:04:00,78.3,73.1,29.99,NW,326,0.0,11.0,84,0.50,,,0.29,Wunderground v.1.15,2013-08-09 08:04:00,
2013-08-09 04:09:00,77.2,73.4,29.99,East,95,0.0,11.0,88,0.10,,,0.29,Wunderground v.1.15,2013-08-09 08:09:00,
2013-08-09 04:14:00,77.0,73.5,29.98,ESE,103,0.0,2.0,89,0.05,,,0.29,Wunderground v.1.15,2013-08-09 08:14:00,
2013-08-09 04:19:00,76.9,73.7,29.98,ESE,103,0.0,2.0,90,0.04,,,0.29,Wunderground v.1.15,2013-08-09 08:19:00,
2013-08-09 04:24:00,77.1,74.3,29.98,ESE,123,0.0,3.0,91,0.00,,,0.29,Wunderground v.1.15,2013-08-09 08:24:00,
2013-08-09 04:29:00,77.3,74.8,29.98,East,101,0.0,3.0,92,0.00,,,0.29,Wunderground v.1.15,2013-08-09 08:29:00,
2013-08-09 04:34:00,77.4,74.9,29.98,East,101,0.0,0.0,92,0.00,,,0.29,Wunderground v.1.15,2013-08-09 08:34:00,
2013-08-09 04:39:00,77.4,74.9,29.98,SE,126,0.0,2.0,92,0.00,,,0.29,Wunderground v.1.15,2013-08-09 08:39:00,
2013-08-09 04:45:00,77.4,74.9,29.98,East,98,0.0,4.0,92,0.00,,,0.29,Wunderground v.1.15,2013-08-09 08:45:00,
2013-08-09 04:50:00,77.3,74.8,29.98,SE,125,0.0,0.0,92,0.00,,,0.29,Wunderground v.1.15,2013-08-09 08:50:00,
2013-08-09 04:55:00,77.2,74.7,29.98,ESE,114,0.0,1.0,92,0.00,,,0.29,Wunderground v.1.15,2013-08-09 08:55:00,
2013-08-09 05:01:00,77.2,74.7,29.98,ESE,114,0.0,0.0,92,0.00,,,0.29,Wunderground v.1.15,2013-08-09 09:01:00,
2013-08-09 05:06:00,77.2,74.7,29.98,ESE,114,0.0,0.0,92,0.00,,,0.29,Wunderground v.1.15,2013-08-09 09:06:00,
2013-08-09 05:11:00,77.4,75.2,29.98,ESE,108,0.0,0.0,93,0.00,,,0.29,Wunderground v.1.15,2013-08-09 09:11:00,
2013-08-09 05:16:00,77.4,75.2,29.98,ESE,108,0.0,0.0,93,0.00,,,0.29,Wunderground v.1.15,2013-08-09 09:16:00,
2013-08-09 05:21:00,77.3,75.1,29.98,ESE,108,0.0,0.0,93,0.00,,,0.29,Wunderground v.1.15,2013-08-09 09:21:00,
2013-08-09 05:26:00,77.1,74.9,29.98,ESE,108,0.0,0.0,93,0.00,,,0.29,Wunderground v.1.15,2013-08-09 09:26:00,
2013-08-09 05:31:00,77.0,74.8,29.98,ESE,108,0.0,0.0,93,0.00,,,0.29,Wunderground v.1.15,2013-08-09 09:31:00,
2013-08-09 05:36:00,76.9,74.7,29.97,ESE,108,0.0,0.0,93,0.00,,,0.29,Wunderground v.1.15,2013-08-09 09:36:00,
2013-08-09 05:41:00,76.9,75.0,29.97,ESE,108,0.0,0.0,94,0.00,,,0.29,Wunderground v.1.15,2013-08-09 09:41:00,
2013-08-09 05:46:00,76.8,74.9,29.97,ESE,108,0.0,0.0,94,0.00,,,0.29,Wunderground v.1.15,2013-08-09 09:46:00,
2013-08-09 05:51:00,76.9,75.0,29.97,ESE,108,0.0,0.0,94,0.00,,,0.29,Wunderground v.1.15,2013-08-09 09:51:00,
2013-08-09 05:56:00,76.9,75.0,29.97,East,99,0.0,0.0,94,0.00,,,0.29,Wunderground v.1.15,2013-08-09 09:56:00,
2013-08-09 06:01:00,76.9,75.0,29.97,ESE,103,0.0,0.0,94,0.00,,,0.29,Wunderground v.1.15,2013-08-09 10:01:00,
2013-08-09 06:06:00,76.8,74.9,29.97,ESE,103,0.0,0.0,94,0.00,,,0.29,Wunderground v.1.15,2013-08-09 10:06:00,
2013-08-09 06:11:00,76.7,74.8,29.97,ESE,103,0.0,0.0,94,0.00,,,0.29,Wunderground v.1.15,2013-08-09 10:11:00,
2013-08-09 06:16:00,76.7,75.2,29.97,ESE,103,0.0,0.0,95,0.00,,,0.29,Wunderground v.1.15,2013-08-09 10:16:00,
2013-08-09 06:21:00,76.6,75.1,29.97,ESE,103,0.0,0.0,95,0.00,,,0.29,Wunderground v.1.15,2013-08-09 10:21:00,
2013-08-09 06:26:00,76.7,75.2,29.97,ESE,103,0.0,0.0,95,0.00,,,0.29,Wunderground v.1.15,2013-08-09 10:26:00,
2013-08-09 06:31:00,76.8,75.3,29.97,East,101,0.0,0.0,95,0.00,,,0.29,Wunderground v.1.15,2013-08-09 10:31:00,
2013-08-09 06:36:00,76.9,75.4,29.98,East,101,0.0,1.0,95,0.00,,,0.29,Wunderground v.1.15,2013-08-09 10:36:00,
2013-08-09 06:41:00,77.0,75.5,29.98,East,101,0.0,0.0,95,0.00,,,0.29,Wunderground v.1.15,2013-08-09 10:41:00,
2013-08-09 06:46:00,77.2,75.7,29.99,East,96,0.0,3.0,95,0.83,,,0.31,Wunderground v.1.15,2013-08-09 10:46:00,
2013-08-09 06:51:00,76.7,74.8,29.99,ENE,58,0.0,2.0,94,0.28,,,0.38,Wunderground v.1.15,2013-08-09 10:51:00,
2013-08-09 06:56:00,76.2,74.0,29.99,ESE,108,0.0,2.0,93,0.08,,,0.38,Wunderground v.1.15,2013-08-09 10:56:00,
2013-08-09 07:01:00,76.0,73.8,29.99,East,96,0.0,1.0,93,0.05,,,0.38,Wunderground v.1.15,2013-08-09 11:01:00,
2013-08-09 07:06:00,76.1,73.9,29.99,East,101,0.0,1.0,93,0.00,,,0.38,Wunderground v.1.15,2013-08-09 11:06:00,
2013-08-09 07:11:00,76.2,73.7,29.99,ESE,116,0.0,0.0,92,0.00,,,0.38,Wunderground v.1.15,2013-08-09 11:11:00,
2013-08-09 07:12:00,76.3,73.8,29.99,ESE,116,0.0,0.0,92,0.00,,,0.38,Wunderground v.1.15,2013-08-09 11:12:00,
2013-08-09 07:17:00,76.4,73.9,29.99,ESE,117,0.0,0.0,92,0.00,,,0.38,Wunderground v.1.15,2013-08-09 11:17:00,
2013-08-09 07:22:00,76.6,74.1,29.99,ESE,115,0.0,0.0,92,0.00,,,0.38,Wunderground v.1.15,2013-08-09 11:22:00,
2013-08-09 07:27:00,76.9,74.4,29.99,ESE,114,0.0,1.0,92,0.00,,,0.38,Wunderground v.1.15,2013-08-09 11:27:00,
2013-08-09 07:32:00,77.5,75.3,29.98,ESE,113,0.0,0.0,93,0.00,,,0.38,Wunderground v.1.15,2013-08-09 11:32:00,
2013-08-09 07:37:00,77.7,75.2,29.98,ESE,113,0.0,0.0,92,0.00,,,0.38,Wunderground v.1.15,2013-08-09 11:37:00,
2013-08-09 07:42:00,77.7,75.2,29.98,ESE,113,0.0,0.0,92,0.00,,,0.38,Wunderground v.1.15,2013-08-09 11:42:00,
2013-08-09 07:47:00,77.7,75.2,29.98,ESE,113,0.0,0.0,92,0.00,,,0.38,Wunderground v.1.15,2013-08-09 11:47:00,
2013-08-09 07:52:00,78.0,75.5,29.99,ESE,113,0.0,0.0,92,0.00,,,0.38,Wunderground v.1.15,2013-08-09 11:52:00,
2013-08-09 07:57:00,78.0,75.2,29.99,ESE,113,0.0,1.0,91,0.00,,,0.38,Wunderground v.1.15,2013-08-09 11:57:00,
2013-08-09 08:02:00,78.3,75.5,30.00,SE,124,0.0,0.0,91,0.00,,,0.38,Wunderground v.1.15,2013-08-09 12:02:00,
2013-08-09 08:07:00,78.7,75.8,29.99,East,100,0.0,1.0,91,0.00,,,0.38,Wunderground v.1.15,2013-08-09 12:07:00,
2013-08-09 08:12:00,79.2,76.3,29.99,NNE,20,0.0,0.0,91,0.00,,,0.38,Wunderground v.1.15,2013-08-09 12:12:00,
2013-08-09 08:17:00,80.0,77.1,29.99,NNE,32,0.0,1.0,91,0.00,,,0.38,Wunderground v.1.15,2013-08-09 12:17:00,
2013-08-09 08:22:00,80.9,77.7,30.00,East,86,0.0,1.0,90,0.00,,,0.38,Wunderground v.1.15,2013-08-09 12:22:00,
2013-08-09 08:27:00,81.3,77.4,30.01,ESE,108,0.0,2.0,88,0.00,,,0.38,Wunderground v.1.15,2013-08-09 12:27:00,
2013-08-09 08:32:00,81.3,77.4,30.00,NE,53,0.0,0.0,88,0.00,,,0.38,Wunderground v.1.15,2013-08-09 12:32:00,
2013-08-09 08:37:00,81.9,78.3,30.01,East,83,0.0,1.0,89,0.00,,,0.38,Wunderground v.1.15,2013-08-09 12:37:00,
2013-08-09 08:42:00,82.1,77.5,30.01,East,88,0.0,1.0,86,0.00,,,0.38,Wunderground v.1.15,2013-08-09 12:42:00,
2013-08-09 08:47:00,82.0,77.7,30.01,East,84,0.0,3.0,87,0.00,,,0.38,Wunderground v.1.15,2013-08-09 12:47:00,
2013-08-09 08:52:00,82.3,78.0,30.01,East,101,0.0,4.0,87,0.00,,,0.38,Wunderground v.1.15,2013-08-09 12:52:00,
2013-08-09 08:57:00,82.8,77.8,30.02,East,101,0.0,4.0,85,0.00,,,0.38,Wunderground v.1.15,2013-08-09 12:57:00,
2013-08-09 09:02:00,83.3,77.6,30.01,East,93,0.0,3.0,83,0.00,,,0.38,Wunderground v.1.15,2013-08-09 13:02:00,
2013-08-09 09:07:00,83.5,77.8,30.02,East,86,1.0,3.0,83,0.00,,,0.38,Wunderground v.1.15,2013-08-09 13:07:00,
2013-08-09 09:12:00,83.4,77.3,30.02,ESE,107,0.0,2.0,82,0.00,,,0.38,Wunderground v.1.15,2013-08-09 13:12:00,
2013-08-09 09:17:00,83.1,77.4,30.03,ENE,67,0.0,7.0,83,0.00,,,0.38,Wunderground v.1.15,2013-08-09 13:17:00,
2013-08-09 09:22:00,81.1,75.4,30.03,ESE,106,0.0,10.0,83,0.63,,,0.49,Wunderground v.1.15,2013-08-09 13:22:00,
2013-08-09 09:27:00,79.6,75.0,30.02,East,88,0.0,10.0,86,0.13,,,0.51,Wunderground v.1.15,2013-08-09 13:27:00,
2013-08-09 09:32:00,79.7,76.2,30.02,East,94,0.0,2.0,89,0.06,,,0.51,Wunderground v.1.15,2013-08-09 13:32:00,
2013-08-09 09:37:00,80.7,77.8,30.03,ESE,111,0.0,2.0,91,0.04,,,0.51,Wunderground v.1.15,2013-08-09 13:37:00,
2013-08-09 09:42:00,81.8,78.6,30.03,East,98,0.0,1.0,90,0.00,,,0.51,Wunderground v.1.15,2013-08-09 13:42:00,
2013-08-09 09:47:00,82.7,78.8,30.03,ENE,77,3.0,6.0,88,0.00,,,0.51,Wunderground v.1.15,2013-08-09 13:47:00,
2013-08-09 09:52:00,83.2,78.9,30.03,SE,124,2.0,6.0,87,0.00,,,0.51,Wunderground v.1.15,2013-08-09 13:52:00,
2013-08-09 09:57:00,83.9,78.5,30.03,ENE,77,0.0,10.0,84,0.00,,,0.51,Wunderground v.1.15,2013-08-09 13:57:00,
2013-08-09 10:02:00,84.5,78.8,30.03,SE,125,10.0,10.0,83,0.00,,,0.51,Wunderground v.1.15,2013-08-09 14:02:00,
2013-08-09 10:07:00,84.9,77.7,30.03,East,96,3.0,13.0,79,0.00,,,0.51,Wunderground v.1.15,2013-08-09 14:07:00,
2013-08-09 10:12:00,85.4,77.8,30.03,ENE,76,2.0,7.0,78,0.00,,,0.51,Wunderground v.1.15,2013-08-09 14:12:00,
2013-08-09 10:17:00,85.7,77.3,30.04,SE,143,6.0,11.0,76,0.00,,,0.51,Wunderground v.1.15,2013-08-09 14:17:00,
2013-08-09 10:22:00,85.7,76.9,30.04,ENE,72,4.0,9.0,75,0.00,,,0.51,Wunderground v.1.15,2013-08-09 14:22:00,
2013-08-09 10:27:00,85.6,76.8,30.04,East,93,2.0,9.0,75,0.00,,,0.51,Wunderground v.1.15,2013-08-09 14:27:00,
2013-08-09 10:32:00,85.3,76.5,30.04,East,82,7.0,9.0,75,0.00,,,0.51,Wunderground v.1.15,2013-08-09 14:32:00,
2013-08-09 10:37:00,85.1,76.3,30.04,East,98,2.0,9.0,75,0.00,,,0.51,Wunderground v.1.15,2013-08-09 14:37:00,
2013-08-09 10:42:00,85.2,76.8,30.04,WSW,257,1.0,7.0,76,0.00,,,0.51,Wunderground v.1.15,2013-08-09 14:42:00,
2013-08-09 10:47:00,85.4,77.0,30.04,SE,124,4.0,7.0,76,0.00,,,0.51,Wunderground v.1.15,2013-08-09 14:47:00,
2013-08-09 10:53:00,85.7,77.3,30.04,ESE,106,2.0,6.0,76,0.00,,,0.51,Wunderground v.1.15,2013-08-09 14:53:00,
2013-08-09 10:58:00,86.0,77.1,30.03,ESE,108,0.0,6.0,75,0.00,,,0.51,Wunderground v.1.15,2013-08-09 14:58:00,
2013-08-09 11:03:00,86.2,77.3,30.03,ESE,103,0.0,4.0,75,0.00,,,0.51,Wunderground v.1.15,2013-08-09 15:03:00,
2013-08-09 11:09:00,86.3,77.0,30.03,ESE,111,4.0,9.0,74,0.00,,,0.51,Wunderground v.1.15,2013-08-09 15:09:00,
2013-08-09 11:14:00,86.4,76.7,30.03,WSW,243,0.0,6.0,73,0.00,,,0.51,Wunderground v.1.15,2013-08-09 15:14:00,
2013-08-09 11:19:00,86.7,77.0,30.03,East,88,3.0,6.0,73,0.00,,,0.51,Wunderground v.1.15,2013-08-09 15:19:00,
2013-08-09 11:24:00,86.9,77.2,30.03,ESE,121,5.0,8.0,73,0.00,,,0.51,Wunderground v.1.15,2013-08-09 15:24:00,
2013-08-09 11:29:00,87.0,76.9,30.03,East,79,3.0,9.0,72,0.00,,,0.51,Wunderground v.1.15,2013-08-09 15:29:00,
2013-08-09 11:35:00,87.0,76.9,30.03,NE,55,0.0,10.0,72,0.00,,,0.51,Wunderground v.1.15,2013-08-09 15:35:00,
2013-08-09 11:40:00,87.3,76.7,30.03,SSE,156,2.0,3.0,71,0.00,,,0.51,Wunderground v.1.15,2013-08-09 15:40:00,
2013-08-09 11:45:00,87.5,76.1,30.03,SW,219,0.0,10.0,69,0.00,,,0.51,Wunderground v.1.15,2013-08-09 15:45:00,
2013-08-09 11:50:00,87.8,76.4,30.03,ESE,118,7.0,9.0,69,0.00,,,0.51,Wunderground v.1.15,2013-08-09 15:50:00,
2013-08-09 11:55:00,87.8,76.4,30.03,ESE,104,7.0,9.0,69,0.00,,,0.51,Wunderground v.1.15,2013-08-09 15:55:00,
2013-08-09 12:00:00,87.9,77.3,30.03,North,360,1.0,3.0,71,0.00,,,0.51,Wunderground v.1.15,2013-08-09 16:00:00,
2013-08-09 12:05:00,88.0,77.4,30.03,ENE,65,3.0,11.0,71,0.00,,,0.51,Wunderground v.1.15,2013-08-09 16:05:00,
2013-08-09 12:10:00,87.5,76.9,30.03,East,90,5.0,5.0,71,0.00,,,0.51,Wunderground v.1.15,2013-08-09 16:10:00,
2013-08-09 12:15:00,87.4,77.3,30.03,East,98,4.0,8.0,72,0.00,,,0.51,Wunderground v.1.15,2013-08-09 16:15:00,
2013-08-09 12:20:00,87.4,77.3,30.03,SE,146,2.0,3.0,72,0.00,,,0.51,Wunderground v.1.15,2013-08-09 16:20:00,
2013-08-09 12:25:00,87.4,77.3,30.04,NE,53,4.0,11.0,72,0.00,,,0.51,Wunderground v.1.15,2013-08-09 16:25:00,
2013-08-09 12:30:00,86.7,77.0,30.04,SSE,150,5.0,11.0,73,0.00,,,0.51,Wunderground v.1.15,2013-08-09 16:30:00,
2013-08-09 12:35:00,85.9,77.5,30.04,ESE,121,3.0,11.0,76,0.00,,,0.51,Wunderground v.1.15,2013-08-09 16:35:00,
2013-08-09 12:40:00,85.9,77.5,30.04,East,89,3.0,6.0,76,0.00,,,0.51,Wunderground v.1.15,2013-08-09 16:40:00,
2013-08-09 12:45:00,85.6,76.8,30.04,SW,218,3.0,11.0,75,0.00,,,0.51,Wunderground v.1.15,2013-08-09 16:45:00,
2013-08-09 12:50:00,85.5,77.1,30.05,East,91,1.0,3.0,76,0.00,,,0.51,Wunderground v.1.15,2013-08-09 16:50:00,
2013-08-09 12:55:00,85.5,76.7,30.05,SSW,205,0.0,7.0,75,0.00,,,0.51,Wunderground v.1.15,2013-08-09 16:55:00,
2013-08-09 13:00:00,85.4,76.6,30.06,SSW,197,0.0,2.0,75,0.00,,,0.51,Wunderground v.1.15,2013-08-09 17:00:00,
2013-08-09 13:05:00,85.3,76.9,30.06,West,273,3.0,10.0,76,0.00,,,0.51,Wunderground v.1.15,2013-08-09 17:05:00,
2013-08-09 13:10:00,85.0,76.6,30.06,West,263,0.0,4.0,76,0.00,,,0.51,Wunderground v.1.15,2013-08-09 17:10:00,
2013-08-09 13:16:00,84.7,76.7,30.06,SSW,200,1.0,7.0,77,0.00,,,0.51,Wunderground v.1.15,2013-08-09 17:16:00,
2013-08-09 13:21:00,84.5,76.5,30.07,ENE,65,4.0,6.0,77,0.00,,,0.51,Wunderground v.1.15,2013-08-09 17:21:00,
2013-08-09 13:26:00,84.1,75.7,30.07,East,100,3.0,9.0,76,0.00,,,0.51,Wunderground v.1.15,2013-08-09 17:26:00,
2013-08-09 13:31:00,83.8,74.6,30.08,ENE,76,5.0,11.0,74,0.00,,,0.51,Wunderground v.1.15,2013-08-09 17:31:00,
2013-08-09 13:36:00,83.0,73.9,30.08,SE,134,1.0,11.0,74,0.00,,,0.51,Wunderground v.1.15,2013-08-09 17:36:00,
2013-08-09 13:41:00,82.5,74.2,30.07,East,98,2.0,6.0,76,0.00,,,0.51,Wunderground v.1.15,2013-08-09 17:41:00,
2013-08-09 13:46:00,82.2,73.9,30.07,SSW,204,2.0,10.0,76,0.00,,,0.51,Wunderground v.1.15,2013-08-09 17:46:00,
2013-08-09 13:51:00,82.2,74.7,30.07,East,84,1.0,5.0,78,0.00,,,0.51,Wunderground v.1.15,2013-08-09 17:51:00,
2013-08-09 13:57:00,82.5,74.9,30.07,SW,222,0.0,6.0,78,0.00,,,0.51,Wunderground v.1.15,2013-08-09 17:57:00,
2013-08-09 14:02:00,82.8,73.7,30.06,SE,127,0.0,9.0,74,0.00,,,0.51,Wunderground v.1.15,2013-08-09 18:02:00,
2013-08-09 14:07:00,83.5,74.3,30.07,West,260,3.0,9.0,74,0.00,,,0.51,Wunderground v.1.15,2013-08-09 18:07:00,
2013-08-09 14:12:00,84.3,73.4,30.07,ESE,103,6.0,7.0,70,0.00,,,0.51,Wunderground v.1.15,2013-08-09 18:12:00,
2013-08-09 14:17:00,84.5,73.6,30.07,South,179,2.0,13.0,70,0.00,,,0.51,Wunderground v.1.15,2013-08-09 18:17:00,
2013-08-09 14:22:00,84.5,73.6,30.06,SE,146,2.0,6.0,70,0.00,,,0.51,Wunderground v.1.15,2013-08-09 18:22:00,
2013-08-09 14:27:00,84.2,72.5,30.06,SSE,159,4.0,9.0,68,0.00,,,0.51,Wunderground v.1.15,2013-08-09 18:27:00,
2013-08-09 14:32:00,83.7,72.4,30.06,WNW,300,1.0,7.0,69,0.00,,,0.51,Wunderground v.1.15,2013-08-09 18:32:00,
2013-08-09 14:37:00,83.6,72.8,30.06,ENE,73,6.0,11.0,70,0.00,,,0.51,Wunderground v.1.15,2013-08-09 18:37:00,
2013-08-09 14:42:00,83.9,73.5,30.06,SSE,149,3.0,4.0,71,0.00,,,0.51,Wunderground v.1.15,2013-08-09 18:42:00,
2013-08-09 14:47:00,84.9,73.6,30.05,ESE,118,3.0,8.0,69,0.00,,,0.51,Wunderground v.1.15,2013-08-09 18:47:00,
2013-08-09 14:52:00,85.2,73.9,30.05,ENE,61,9.0,11.0,69,0.00,,,0.51,Wunderground v.1.15,2013-08-09 18:52:00,
2013-08-09 14:57:00,85.4,74.5,30.05,East,101,6.0,11.0,70,0.00,,,0.51,Wunderground v.1.15,2013-08-09 18:57:00,
2013-08-09 15:02:00,85.2,74.7,30.05,SW,225,0.0,6.0,71,0.00,,,0.51,Wunderground v.1.15,2013-08-09 19:02:00,
2013-08-09 15:07:00,85.5,74.6,30.04,SW,236,0.0,9.0,70,0.00,,,0.51,Wunderground v.1.15,2013-08-09 19:07:00,
2013-08-09 15:12:00,85.5,74.2,30.03,ENE,75,1.0,7.0,69,0.00,,,0.51,Wunderground v.1.15,2013-08-09 19:12:00,
2013-08-09 15:17:00,85.3,74.4,30.03,East,98,7.0,8.0,70,0.00,,,0.51,Wunderground v.1.15,2013-08-09 19:17:00,
2013-08-09 15:22:00,85.6,73.4,30.03,SE,146,1.0,8.0,67,0.00,,,0.51,Wunderground v.1.15,2013-08-09 19:22:00,
2013-08-09 15:27:00,86.5,72.4,30.03,SSE,162,3.0,8.0,63,0.00,,,0.51,Wunderground v.1.15,2013-08-09 19:27:00,
2013-08-09 15:32:00,86.3,70.8,30.03,East,98,3.0,8.0,60,0.00,,,0.51,Wunderground v.1.15,2013-08-09 19:32:00,
2013-08-09 15:37:00,85.9,70.9,30.03,SW,226,0.0,8.0,61,0.00,,,0.51,Wunderground v.1.15,2013-08-09 19:37:00,
2013-08-09 15:42:00,86.2,71.6,30.03,NE,53,0.0,4.0,62,0.00,,,0.51,Wunderground v.1.15,2013-08-09 19:42:00,
2013-08-09 15:47:00,86.7,73.5,30.02,East,89,3.0,6.0,65,0.00,,,0.51,Wunderground v.1.15,2013-08-09 19:47:00,
2013-08-09 15:52:00,86.6,73.9,30.02,WSW,237,2.0,4.0,66,0.00,,,0.51,Wunderground v.1.15,2013-08-09 19:52:00,
2013-08-09 15:57:00,86.3,74.0,30.02,ESE,107,0.0,5.0,67,0.00,,,0.51,Wunderground v.1.15,2013-08-09 19:57:00,
2013-08-09 16:02:00,86.6,75.2,30.02,ESE,105,0.0,7.0,69,0.00,,,0.51,Wunderground v.1.15,2013-08-09 20:02:00,
2013-08-09 16:07:00,86.7,74.0,30.02,East,93,4.0,9.0,66,0.00,,,0.51,Wunderground v.1.15,2013-08-09 20:07:00,
2013-08-09 16:12:00,86.7,74.0,30.02,NE,55,5.0,10.0,66,0.00,,,0.51,Wunderground v.1.15,2013-08-09 20:12:00,
2013-08-09 16:17:00,86.7,74.4,30.02,ESE,111,3.0,11.0,67,0.00,,,0.51,Wunderground v.1.15,2013-08-09 20:17:00,
2013-08-09 16:22:00,87.0,74.7,30.02,East,96,7.0,12.0,67,0.00,,,0.51,Wunderground v.1.15,2013-08-09 20:22:00,
2013-08-09 16:27:00,86.8,74.5,30.02,WSW,256,5.0,12.0,67,0.00,,,0.51,Wunderground v.1.15,2013-08-09 20:27:00,
2013-08-09 16:32:00,86.8,75.4,30.02,SW,218,0.0,6.0,69,0.00,,,0.51,Wunderground v.1.15,2013-08-09 20:32:00,
2013-08-09 16:37:00,87.1,75.7,30.02,East,80,4.0,12.0,69,0.00,,,0.51,Wunderground v.1.15,2013-08-09 20:37:00,
2013-08-09 16:42:00,86.9,75.9,30.01,SSE,160,1.0,8.0,70,0.00,,,0.51,Wunderground v.1.15,2013-08-09 20:42:00,
2013-08-09 16:47:00,86.7,76.2,30.01,ESE,105,4.0,12.0,71,0.00,,,0.51,Wunderground v.1.15,2013-08-09 20:47:00,
2013-08-09 16:52:00,86.3,76.2,30.01,ENE,72,5.0,10.0,72,0.00,,,0.51,Wunderground v.1.15,2013-08-09 20:52:00,
2013-08-09 16:57:00,86.1,76.0,30.01,ESE,121,3.0,10.0,72,0.00,,,0.51,Wunderground v.1.15,2013-08-09 20:57:00,
2013-08-09 17:02:00,86.0,75.9,30.01,SSE,166,3.0,8.0,72,0.00,,,0.51,Wunderground v.1.15,2013-08-09 21:02:00,
2013-08-09 17:07:00,85.6,74.7,30.01,ESE,107,5.0,10.0,70,0.00,,,0.51,Wunderground v.1.15,2013-08-09 21:07:00,
2013-08-09 17:12:00,85.2,74.3,30.01,ENE,70,10.0,12.0,70,0.00,,,0.51,Wunderground v.1.15,2013-08-09 21:12:00,
2013-08-09 17:17:00,84.9,75.3,30.01,East,93,6.0,12.0,73,0.00,,,0.51,Wunderground v.1.15,2013-08-09 21:17:00,
2013-08-09 17:22:00,84.5,74.5,30.02,East,79,3.0,11.0,72,0.00,,,0.51,Wunderground v.1.15,2013-08-09 21:22:00,
2013-08-09 17:27:00,84.3,74.3,30.01,East,88,9.0,11.0,72,0.00,,,0.51,Wunderground v.1.15,2013-08-09 21:27:00,
2013-08-09 17:32:00,84.2,74.6,30.02,East,100,6.0,8.0,73,0.00,,,0.51,Wunderground v.1.15,2013-08-09 21:32:00,
2013-08-09 17:37:00,84.2,73.8,30.02,East,79,0.0,10.0,71,0.00,,,0.51,Wunderground v.1.15,2013-08-09 21:37:00,
2013-08-09 17:42:00,84.3,73.9,30.02,East,88,0.0,6.0,71,0.00,,,0.51,Wunderground v.1.15,2013-08-09 21:42:00,
2013-08-09 17:47:00,84.1,74.5,30.02,ENE,65,0.0,8.0,73,0.00,,,0.51,Wunderground v.1.15,2013-08-09 21:47:00,
2013-08-09 17:52:00,83.7,74.5,30.02,SE,134,6.0,9.0,74,0.00,,,0.51,Wunderground v.1.15,2013-08-09 21:52:00,
2013-08-09 17:57:00,83.5,74.7,30.02,ESE,106,4.0,9.0,75,0.00,,,0.51,Wunderground v.1.15,2013-08-09 21:57:00,
2013-08-09 18:02:00,83.3,74.5,30.02,ENE,73,0.0,7.0,75,0.00,,,0.51,Wunderground v.1.15,2013-08-09 22:02:00,
2013-08-09 18:07:00,83.1,74.4,30.02,North,5,0.0,7.0,75,0.00,,,0.51,Wunderground v.1.15,2013-08-09 22:07:00,
2013-08-09 18:12:00,82.9,73.8,30.02,East,84,6.0,7.0,74,0.00,,,0.51,Wunderground v.1.15,2013-08-09 22:12:00,
2013-08-09 18:17:00,82.8,73.3,30.03,ESE,106,1.0,12.0,73,0.00,,,0.51,Wunderground v.1.15,2013-08-09 22:17:00,
2013-08-09 18:22:00,82.8,73.7,30.03,East,91,5.0,9.0,74,0.00,,,0.51,Wunderground v.1.15,2013-08-09 22:22:00,
2013-08-09 18:27:00,82.8,73.7,30.03,ESE,121,0.0,9.0,74,0.00,,,0.51,Wunderground v.1.15,2013-08-09 22:27:00,
2013-08-09 18:32:00,82.9,73.8,30.03,SE,127,0.0,7.0,74,0.00,,,0.51,Wunderground v.1.15,2013-08-09 22:32:00,
2013-08-09 18:37:00,82.9,72.9,30.03,East,94,4.0,8.0,72,0.00,,,0.51,Wunderground v.1.15,2013-08-09 22:37:00,
2013-08-09 18:42:00,83.0,73.0,30.03,SSW,198,0.0,6.0,72,0.00,,,0.51,Wunderground v.1.15,2013-08-09 22:42:00,
2013-08-09 18:47:00,83.2,73.6,30.03,East,82,0.0,6.0,73,0.00,,,0.51,Wunderground v.1.15,2013-08-09 22:47:00,
2013-08-09 18:52:00,83.2,73.6,30.03,NE,55,1.0,6.0,73,0.00,,,0.51,Wunderground v.1.15,2013-08-09 22:52:00,
2013-08-09 18:57:00,83.1,73.9,30.02,SE,125,0.0,6.0,74,0.00,,,0.51,Wunderground v.1.15,2013-08-09 22:57:00,
2013-08-09 19:02:00,83.0,74.3,30.03,East,84,5.0,8.0,75,0.00,,,0.51,Wunderground v.1.15,2013-08-09 23:02:00,
2013-08-09 19:07:00,83.0,74.6,30.03,East,92,0.0,8.0,76,0.00,,,0.51,Wunderground v.1.15,2013-08-09 23:07:00,
2013-08-09 19:12:00,82.8,74.8,30.03,ESE,106,1.0,3.0,77,0.00,,,0.51,Wunderground v.1.15,2013-08-09 23:12:00,
2013-08-09 19:17:00,82.8,74.8,30.03,ESE,112,0.0,5.0,77,0.00,,,0.51,Wunderground v.1.15,2013-08-09 23:17:00,
2013-08-09 19:22:00,82.7,74.4,30.03,ENE,76,0.0,4.0,76,0.00,,,0.51,Wunderground v.1.15,2013-08-09 23:22:00,
2013-08-09 19:27:00,82.9,74.6,30.03,ESE,103,0.0,7.0,76,0.00,,,0.51,Wunderground v.1.15,2013-08-09 23:27:00,
2013-08-09 19:32:00,83.3,74.9,30.03,ESE,105,2.0,3.0,76,0.00,,,0.51,Wunderground v.1.15,2013-08-09 23:32:00,
2013-08-09 19:37:00,83.4,75.0,30.03,SE,141,1.0,4.0,76,0.00,,,0.51,Wunderground v.1.15,2013-08-09 23:37:00,
2013-08-09 19:42:00,83.1,74.7,30.04,SE,124,0.0,1.0,76,0.00,,,0.51,Wunderground v.1.15,2013-08-09 23:42:00,
2013-08-09 19:47:00,82.8,74.8,30.04,ESE,112,0.0,4.0,77,0.00,,,0.51,Wunderground v.1.15,2013-08-09 23:47:00,
2013-08-09 19:52:00,82.5,74.6,30.05,SE,132,0.0,1.0,77,0.00,,,0.51,Wunderground v.1.15,2013-08-09 23:52:00,
2013-08-09 19:57:00,82.2,74.7,30.05,East,91,0.0,3.0,78,0.00,,,0.51,Wunderground v.1.15,2013-08-09 23:57:00,
2013-08-09 20:03:00,81.9,74.4,30.05,East,96,0.0,2.0,78,0.00,,,0.51,Wunderground v.1.15,2013-08-10 00:03:00,
2013-08-09 20:08:00,81.6,74.1,30.05,East,91,1.0,2.0,78,0.00,,,0.51,Wunderground v.1.15,2013-08-10 00:08:00,
2013-08-09 20:13:00,81.5,74.4,30.05,East,100,0.0,0.0,79,0.00,,,0.51,Wunderground v.1.15,2013-08-10 00:13:00,
2013-08-09 20:18:00,81.2,74.1,30.05,ESE,115,0.0,2.0,79,0.00,,,0.51,Wunderground v.1.15,2013-08-10 00:18:00,
2013-08-09 20:23:00,81.1,74.0,30.05,ENE,77,0.0,3.0,79,0.00,,,0.51,Wunderground v.1.15,2013-08-10 00:23:00,
2013-08-09 20:29:00,81.0,73.5,30.05,East,99,0.0,3.0,78,0.00,,,0.51,Wunderground v.1.15,2013-08-10 00:29:00,
2013-08-09 20:34:00,80.9,73.0,30.05,ESE,107,0.0,2.0,77,0.00,,,0.51,Wunderground v.1.15,2013-08-10 00:34:00,
2013-08-09 20:39:00,80.8,72.9,30.05,South,176,0.0,2.0,77,0.00,,,0.51,Wunderground v.1.15,2013-08-10 00:39:00,
2013-08-09 20:44:00,80.7,72.8,30.05,ESE,112,0.0,2.0,77,0.00,,,0.51,Wunderground v.1.15,2013-08-10 00:44:00,
2013-08-09 20:49:00,80.6,72.7,30.05,East,98,0.0,2.0,77,0.00,,,0.51,Wunderground v.1.15,2013-08-10 00:49:00,
2013-08-09 20:54:00,80.5,72.2,30.05,ESE,105,1.0,2.0,76,0.00,,,0.51,Wunderground v.1.15,2013-08-10 00:54:00,
2013-08-09 20:59:00,80.5,72.2,30.05,SSE,159,0.0,2.0,76,0.00,,,0.51,Wunderground v.1.15,2013-08-10 00:59:00,
2013-08-09 21:04:00,80.4,72.1,30.06,East,91,0.0,0.0,76,0.00,,,0.51,Wunderground v.1.15,2013-08-10 01:04:00,
2013-08-09 21:09:00,80.2,71.9,30.06,East,82,0.0,1.0,76,0.00,,,0.51,Wunderground v.1.15,2013-08-10 01:09:00,
2013-08-09 21:14:00,80.0,71.8,30.06,East,82,0.0,0.0,76,0.00,,,0.51,Wunderground v.1.15,2013-08-10 01:14:00,
2013-08-09 21:19:00,79.7,71.5,30.06,East,82,0.0,0.0,76,0.00,,,0.51,Wunderground v.1.15,2013-08-10 01:19:00,
2013-08-09 21:24:00,79.6,71.4,30.06,East,82,0.0,0.0,76,0.00,,,0.51,Wunderground v.1.15,2013-08-10 01:24:00,
2013-08-09 21:29:00,79.5,71.3,30.06,East,83,0.0,0.0,76,0.00,,,0.51,Wunderground v.1.15,2013-08-10 01:29:00,
2013-08-09 21:34:00,79.4,71.6,30.06,East,84,0.0,0.0,77,0.00,,,0.51,Wunderground v.1.15,2013-08-10 01:34:00,
2013-08-09 21:39:00,79.2,71.4,30.07,East,84,0.0,0.0,77,0.00,,,0.51,Wunderground v.1.15,2013-08-10 01:39:00,
2013-08-09 21:44:00,79.2,71.7,30.07,East,83,0.0,0.0,78,0.00,,,0.51,Wunderground v.1.15,2013-08-10 01:44:00,
2013-08-09 21:49:00,79.2,71.7,30.07,East,83,0.0,0.0,78,0.00,,,0.51,Wunderground v.1.15,2013-08-10 01:49:00,
2013-08-09 21:54:00,79.1,71.6,30.07,East,82,0.0,0.0,78,0.00,,,0.51,Wunderground v.1.15,2013-08-10 01:54:00,
2013-08-09 21:59:00,79.1,71.6,30.08,East,93,0.0,1.0,78,0.00,,,0.51,Wunderground v.1.15,2013-08-10 01:59:00,
2013-08-09 22:04:00,79.1,71.6,30.08,East,93,0.0,0.0,78,0.00,,,0.51,Wunderground v.1.15,2013-08-10 02:04:00,
2013-08-09 22:09:00,79.2,71.7,30.08,East,93,0.0,0.0,78,0.00,,,0.51,Wunderground v.1.15,2013-08-10 02:09:00,
2013-08-09 22:14:00,79.3,71.8,30.08,East,93,0.0,0.0,78,0.00,,,0.51,Wunderground v.1.15,2013-08-10 02:14:00,
2013-08-09 22:19:00,79.2,71.7,30.07,East,93,0.0,0.0,78,0.00,,,0.51,Wunderground v.1.15,2013-08-10 02:19:00,
2013-08-09 22:24:00,79.1,71.6,30.07,East,93,0.0,0.0,78,0.00,,,0.51,Wunderground v.1.15,2013-08-10 02:24:00,
2013-08-09 22:29:00,79.0,71.6,30.08,East,90,0.0,1.0,78,0.00,,,0.51,Wunderground v.1.15,2013-08-10 02:29:00,
2013-08-09 22:34:00,79.0,71.9,30.08,East,91,0.0,0.0,79,0.00,,,0.51,Wunderground v.1.15,2013-08-10 02:34:00,
2013-08-09 22:39:00,78.9,71.8,30.08,East,91,0.0,0.0,79,0.00,,,0.51,Wunderground v.1.15,2013-08-10 02:39:00,
2013-08-09 22:44:00,78.8,71.7,30.08,East,91,0.0,0.0,79,0.00,,,0.51,Wunderground v.1.15,2013-08-10 02:44:00,
2013-08-09 22:49:00,78.8,71.7,30.08,East,91,0.0,0.0,79,0.00,,,0.51,Wunderground v.1.15,2013-08-10 02:49:00,
2013-08-09 22:54:00,78.7,72.0,30.07,East,91,0.0,0.0,80,0.00,,,0.51,Wunderground v.1.15,2013-08-10 02:54:00,
2013-08-09 22:59:00,78.6,71.9,30.07,East,91,0.0,0.0,80,0.00,,,0.51,Wunderground v.1.15,2013-08-10 02:59:00,
2013-08-09 23:04:00,78.5,71.8,30.07,East,89,0.0,0.0,80,0.00,,,0.51,Wunderground v.1.15,2013-08-10 03:04:00,
2013-08-09 23:09:00,78.4,71.7,30.07,East,89,0.0,0.0,80,0.00,,,0.51,Wunderground v.1.15,2013-08-10 03:09:00,
2013-08-09 23:14:00,78.4,72.1,30.07,East,89,0.0,0.0,81,0.00,,,0.51,Wunderground v.1.15,2013-08-10 03:14:00,
2013-08-09 23:19:00,78.2,71.9,30.07,East,89,0.0,0.0,81,0.00,,,0.51,Wunderground v.1.15,2013-08-10 03:19:00,
2013-08-09 23:24:00,78.2,71.9,30.07,East,89,0.0,0.0,81,0.00,,,0.51,Wunderground v.1.15,2013-08-10 03:24:00,
2013-08-09 23:29:00,78.1,71.8,30.07,East,89,0.0,0.0,81,0.00,,,0.51,Wunderground v.1.15,2013-08-10 03:29:00,
2013-08-09 23:34:00,78.1,72.2,30.07,East,89,0.0,0.0,82,0.00,,,0.51,Wunderground v.1.15,2013-08-10 03:34:00,
2013-08-09 23:39:00,78.0,72.1,30.07,East,89,0.0,0.0,82,0.00,,,0.51,Wunderground v.1.15,2013-08-10 03:39:00,
2013-08-09 23:44:00,78.0,72.1,30.07,East,89,0.0,0.0,82,0.00,,,0.51,Wunderground v.1.15,2013-08-10 03:44:00,
2013-08-09 23:49:00,78.0,72.4,30.08,East,89,0.0,0.0,83,0.00,,,0.51,Wunderground v.1.15,2013-08-10 03:49:00,
2013-08-09 23:54:00,78.1,72.5,30.08,NNE,26,0.0,1.0,83,0.00,,,0.51,Wunderground v.1.15,2013-08-10 03:54:00,
2013-08-09 23:59:00,78.3,73.1,30.08,NE,46,0.0,1.0,84,0.00,,,0.51,Wunderground v.1.15,2013-08-10 03:59:00,